This is the latest recevied weather packets stored in our database for station/object KC7UNY-13. If no packets are shown the sender has not sent any weather packets the latest 10 day(s).
| Time | Temp. | Humidity | Pressure | Rain* | Wind** | Luminosity | Snow |
|---|---|---|---|---|---|---|---|
| 1777633164 | 18.89° C | 47% | 1009.6 hPa | 0 mm | - | 0 W/m² | - |
| 1777632860 | 18.89° C | 47% | 1009.7 hPa | 0 mm | - | 0 W/m² | - |
| 1777632555 | 18.89° C | 47% | 1009.7 hPa | 0 mm | - | 0 W/m² | - |
| 1777632248 | 18.89° C | 47% | 1009.6 hPa | 0 mm | - | 0 W/m² | - |
| 1777631945 | 18.33° C | 48% | 1009.5 hPa | 0 mm | - | 0 W/m² | - |
| 1777631643 | 18.89° C | 47% | 1009.6 hPa | 0 mm | - | 0 W/m² | - |
| 1777631340 | 18.89° C | 47% | 1009.5 hPa | 0 mm | - | 0 W/m² | - |
| 1777631036 | 18.89° C | 46% | 1009.6 hPa | 0 mm | - | 0 W/m² | - |
| 1777630733 | 19.44° C | 46% | 1009.5 hPa | 0 mm | - | 0 W/m² | - |
| 1777630430 | 19.44° C | 45% | 1009.4 hPa | 0 mm | - | 0 W/m² | - |
| 1777630127 | 19.44° C | 44% | 1009.3 hPa | 0 mm | - | 0 W/m² | - |
| 1777629825 | 18.89° C | 44% | 1009.2 hPa | 0 mm | - | 0 W/m² | - |
| 1777629522 | 18.89° C | 44% | 1009.2 hPa | 0 mm | - | 0 W/m² | - |
| 1777629218 | 19.44° C | 44% | 1009.2 hPa | 0 mm | - | 0 W/m² | - |
| 1777628914 | 19.44° C | 43% | 1009.1 hPa | 0 mm | - | 0 W/m² | - |
| 1777628611 | 19.44° C | 43% | 1009.1 hPa | 0 mm | - | 0 W/m² | - |
| 1777628306 | 19.44° C | 43% | 1009 hPa | 0 mm | - | 0 W/m² | - |
| 1777628003 | 18.89° C | 43% | 1009.1 hPa | 0 mm | - | 0 W/m² | - |
| 1777627702 | 18.89° C | 46% | 1009 hPa | 0 mm | - | 0 W/m² | - |
| 1777627401 | 18.89° C | 45% | 1008.9 hPa | 0 mm | - | 0 W/m² | - |
| 1777627099 | 18.89° C | 44% | 1009.2 hPa | 0 mm | - | 0 W/m² | - |
| 1777626795 | 19.44° C | 46% | 1009 hPa | 0 mm | - | 0 W/m² | - |
| 1777626490 | 20° C | 45% | 1008.9 hPa | 0 mm | - | 0 W/m² | - |
| 1777626185 | 20° C | 43% | 1008.9 hPa | 0 mm | - | 0 W/m² | - |
| 1777625884 | 20.56° C | 42% | 1008.7 hPa | 0 mm | - | 0 W/m² | - |
* Rain latest hour (hover to see other rain measurements)
** Current wind speed in m/s (hover to see current wind gust speed)